Tracking 18784 objects as of 16-August-2017
HD Live streaming from Space Station
objects crossing your sky now

UNAMSAT

Track UNAMSAT now!
10-day predictions
UNAMSAT is classified as:


NORAD ID: 24305
Int'l Code: 1996-052B
Perigee: 971.8 km
Apogee: 1,014.5 km
Inclination: 82.9 °
Period: 104.8 minutes
Semi major axis: 7364 km
RCS: 0.174 m2 (medium)
Launch date: September 5, 1996
Source: Mexico (MEX)
Launch site: PLESETSK MISSILE AND SPACE COMPLEX (PKMTR)
Your satellite tracking list
Your tracking list is empty





NASA's NSSDC Master Catalog

Two Line Element Set (TLE):
1 24305U 96052B   17228.54644214  .00000030  00000-0  16177-4 0  9995
2 24305  82.9383 307.9027 0029055 233.1139 126.7353 13.73786305 50128
Source of the keplerian elements: AFSPC